星链-1458 (STARLINK-1458 )

导读

STARLINK-1458是美国太空探索技术公司SpaceX星链星座的一员,于2020年6月4日发射入轨。星链计划旨在搭建全球卫星互联网,为偏远地区提供高速网络服务,推动全球互联互通。作为近地轨道组网卫星,它与数千颗同系列卫星共同构建低轨卫星通信网络,支撑SpaceX卫星互联网服务的覆盖能力,推动了低轨星座商业化发展,也是美国构建太空通信基础设施的重要组成部分。

基本信息
目录编号:
45675
目录名称:
STARLINK-1458
国际标识:
2020-035U
轨道中心:
EARTH
卫星名称:
星链-1458
卫星全名:
星链-1458 (STARLINK-1458 )
卫星状态:
在轨 (已飞行2290 天)
发射日期:
2020-06-04 UTC
国别 :
美国 (US)
星等 :
--
该卫星已列入 空间交会检测服务 Space Conjunction Data Service (SCDS) ,当前飞行风险评估等级: 高风险
轨道信息
数据来源 国际轨道数据 AOE轨道数据
星历时间 2026-09-11T07:31:15+0800
15小时前
查看轨道信息
2026-09-06T21:00:00+0800
5天前
查看轨道信息
半长轴 6721.089km 6723.12km
偏心率 0.000556 0.0004791
轨道倾角 53.039° 53.040°
近地点辐角 56.420° 38.244°
升交点赤经 234.542° 256.662°
平近点角 303.734° 337.500°
近地点 339.215km 341.761km
远地点 346.689km 348.205km
周期 91.394分钟 91.436分钟
每日圈数 15.755906 15.748765
详细信息
固有亮度:
5
最大亮度:
2.5
卫星平台:
Starlink V1.0
覆盖范围:
全球
运营商:
太空探索技术公司
运营商所在国:
美国
制造商(研发单位):
太空探索技术公司
制造商所在国:
美国
使用方式:
暂无
卫星简介
星链(Starlink)计划是由太空探索技术公司(SpaceX)提出的一个巨型低轨卫星互联网星座项目,计划在2019年至2024年间在太空搭建由约1.2万颗卫星组成的“星链”网络,其中1584颗将部署在地球上空550千米处的近地轨道,并从2020年开始工作。该卫星仍在工作。
2D轨道图
3D轨道图
轨道高度分析图
轨道倾角分析图
轨道综合分析图
查看轨道综合分析图
交会数据列表
事件ID 空间交会对象 最接近时刻(TCA) 交会距离 交会风险概率(CRP) 交会风险指数(CRI) 操作
CDM_260912-023404-567506-118021
OBJECT B (61180)
2026-09-12T
02:34:24+0000
0.526 km
远距离
1.518656E-4 高风险 0.79
与全量物体交会距离演化趋势
与全量物体交会风险概率演化趋势